#timestamp,LO_Frequency,Hit,StdDev 
1549630815.6,286047002.8,N
1549630835.5,286047000.3,N
1549630855.3,286047000.8,N
1549630875.1,286046998.4,N
1549630895.9,286046998.9,N
1549630915.7,286046998.9,N
1549630935.6,286046998.8,N
1549630955.4,286046999.6,N
1549630975.2,286046998.4,N
1549630995.1,286046998.8,N
1549630996.0,286046998.8,N
1549631015.8,286046998.4,N
1549631035.7,286046998.6,N
1549631055.5,286046996.8,N
1549631075.3,286046997.5,N
1549631095.2,286046997.3,N
1549631145.0,286046994.9,E
1549631155.9,286046996.5,N
1549631175.7,286047000.2,P
1549631195.5,286047000.9,N
1549631215.4,286047000.8,N
1549631235.2,286046999.0,N
1549631255.0,286047000.8,N
1549631256.0,286047000.8,N
1549631275.8,286047000.8,N
1549631295.6,286047001.2,N
1549631315.5,286047001.1,N
1549631335.3,286047001.0,N
1549631355.1,286046999.9,N
1549631375.9,286047002.8,N
1549631395.7,286047001.6,N
1549631415.6,286047001.6,N
1549631435.4,286047004.2,Y
1549631455.2,286047002.3,P
1549631475.1,286046999.9,N
1549631476.0,286046999.9,N
1549631495.8,286047002.2,N
1549631515.6,286046999.7,N
1549631535.5,286047002.4,N
1549631555.3,286047002.0,N
1549631575.2,286047001.7,N
1549631595.9,286047004.2,Y
1549631615.7,286047002.7,P
1549631635.6,286047002.5,P
1549631655.4,286047002.2,P
1549631675.3,286047001.5,N
1549631695.1,286046999.7,N
1549631696.0,286046999.7,N
1549631715.8,286047001.9,N
1549631735.7,286047001.5,N
1549631755.5,286047001.4,N
1549631775.3,286047004.1,Y
1549631795.2,286047002.2,P
1549631815.0,286047000.1,N
1549631815.9,286047000.1,N
1549631835.8,286047001.9,N
1549631855.6,286047002.2,N
1549631875.4,286047001.4,N
1549631895.3,286047004.2,Y
1549631915.1,286047001.7,P
1549631935.9,286047001.6,P
1549631955.7,286047001.8,P
1549631975.5,286047002.5,Y
1549631995.4,286047000.3,P
1549632015.2,286047000.6,N
1549632035.0,286047000.1,N
1549632036.0,286047000.1,N
1549632055.8,286047000.3,N
1549632075.6,286046999.8,N
1549632095.5,286047001.6,N
1549632115.3,286047001.4,N
1549632135.1,286047003.5,Y
1549632155.9,286047004.1,P
1549632175.7,286047005.3,P
1549632195.6,286047007.5,P
1549632215.4,286047008.6,Y
1549632235.2,286047003.8,P
1549632255.1,286047003.5,P
1549632256.0,286047003.5,P
1549632275.8,286047006.0,Y
1549632295.7,286047001.0,P
1549632315.5,286047000.4,N
1549632335.3,286047000.4,N
1549632355.2,286047000.3,N
1549632375.9,286047000.9,N
1549632395.7,286046998.3,N
1549632415.6,286046998.2,N
1549632435.4,286046999.7,N
1549632455.3,286047000.6,N
1549632475.1,286047000.9,N
1549632476.0,286047000.9,N
1549632495.8,286046999.9,N
1549632515.7,286047001.0,N
1549632535.5,286046999.9,N
1549632555.3,286046999.9,N
1549632575.2,286047000.9,N
1549632595.0,286047000.6,N
1549632595.9,286047000.6,N
1549632615.8,286047001.2,N
1549632635.6,286047000.5,N
1549632655.4,286047000.5,N
1549632675.3,286047001.0,N
1549632695.1,286047000.7,N
1549632715.8,286047000.6,N
1549632735.7,286047000.5,N
1549632755.5,286046999.9,N
1549632775.4,286047002.6,N
1549632795.2,286047002.7,N
1549632815.0,286047001.7,N
1549632815.9,286047001.7,N
1549632835.8,286047004.3,Y
1549632855.6,286047004.0,P
1549632875.5,286047004.0,N
1549632895.3,286047004.0,N
1549632915.1,286047001.6,N
1549632935.9,286046999.7,N
1549632955.7,286047000.2,N
1549632975.5,286046999.7,N
1549632995.4,286047000.4,N
1549633015.2,286047000.0,N
1549633035.1,286046999.7,N
1549633036.0,286046999.7,N
1549633055.8,286047002.8,N
1549633075.6,286047002.5,N
1549633095.5,286047001.4,N
1549633115.3,286047001.8,N
1549633135.2,286047004.3,N
1549633155.9,286047001.6,N
1549633175.7,286047001.9,N
1549633195.6,286047001.8,N
1549633215.4,286047004.0,N
1549633235.2,286047001.4,N
1549633255.1,286047001.7,N
1549633256.0,286047001.7,N
1549633275.8,286047001.7,N
1549633295.7,286047003.4,N
1549633315.5,286047005.9,Y
1549633335.3,286047003.9,P
1549633355.2,286047004.4,P
1549633375.0,286047004.0,P
1549633375.9,286047004.0,Y
1549633395.8,286046998.2,P
1549633415.6,286046998.5,N
1549633435.4,286046998.4,N
1549633455.3,286046998.9,N
1549633475.1,286046998.8,N
1549633495.8,286047001.0,N
1549633515.7,286047000.6,N
1549633535.5,286047000.6,N
1549633555.4,286047000.0,N
1549633575.2,286047000.8,N
1549633595.0,286046999.9,N
1549633595.9,286046999.9,N
1549633615.8,286047000.1,N
1549633635.6,286046999.9,N
1549633655.4,286047000.4,N
1549633675.3,286047002.4,N
1549633695.1,286047002.6,N
1549633715.9,286047002.3,N
1549633735.7,286047002.2,N
1549633755.5,286047002.2,N
1549633775.4,286047002.4,N
1549633795.2,286047002.3,N
1549633815.1,286047003.9,N
1549633816.0,286047003.9,N
1549633835.8,286047003.7,N
1549633855.6,286047004.4,N
1549633875.5,286047002.1,N
1549633895.3,286047003.9,N
1549633915.1,286047003.9,N
1549633935.9,286047003.2,N
1549633955.7,286047002.3,N
1549633975.6,286047001.3,N
1549633995.4,286047002.0,N
1549634015.2,286047002.0,N
1549634035.1,286047003.8,N
1549634036.0,286047003.8,N
1549634055.8,286047004.4,Y
1549634075.7,286047000.4,P
1549634095.5,286047000.2,N
1549634115.3,286047002.0,N
1549634135.2,286047004.1,Y
1549634155.0,286047004.1,P
1549634155.9,286047004.1,N
1549634175.7,286047004.1,N
1549634195.6,286047004.3,Y
1549634215.4,286047000.3,P
1549634235.3,286047002.2,N
1549634255.1,286047001.9,N
1549634275.8,286047001.5,N
1549634295.7,286047001.4,N
1549634315.5,286047001.6,N
1549634335.4,286047002.8,Y
1549634355.2,286047000.9,P
1549634375.0,286047000.9,N
1549634375.9,286047000.9,N
1549634395.8,286047001.1,N
